Location: Recife
(8.0585°S, 34.8848°W)
Time: 20:39:52
(UTC-03:00)

Explorer 11/Cluster Stage 4 - Pass Details

Date: 15 April 2026
Orbit: 463 x 1174 km, 28.8° (Epoch: 16 May)

Event Time Altitude Azimuth Distance (km) Brightness Sun altitude
Rises 05:06:46 0° 231° (SW) 2,757 - -4.5°
Exits shadow 05:07:04 - 230° (SW) 2,644 8.8 -4.4°
Reaches altitude 10° 05:08:57 10° 224° (SW) 1,946 8.1 -4.0°
Maximum altitude 05:13:18 45° 150° (SSE) 930 7.2 -2.9°
Drops below altitude 10° 05:18:37 10° 78° (ENE) 2,375 11.3 -1.6°
Sets 05:21:31 0° 72° (ENE) 3,440 12.5 -0.9°
